| time (UTC) | temp F | wind direction | speed knots | gust knots | rain 1hr in | rain 24hr in | rain mn in | humidity % | barometer mb |
| 20260503060155 | 32 | 180 | 0.0 | 0.0 | 0.00 | 0.00 | 0.00 | 76 | 982.0 |
| 20260503054655 | 32 | 180 | 0.0 | 0.0 | 0.00 | 0.00 | 0.00 | 77 | 982.0 |
| 20260503054155 | 32 | 180 | 0.0 | 0.0 | 0.00 | 0.00 | 0.00 | 77 | 982.0 |
| 20260503053655 | 32 | 180 | 0.0 | 0.0 | 0.00 | 0.00 | 0.00 | 78 | 982.0 |
| 20260503053159 | 32 | 180 | 0.0 | 0.0 | 0.00 | 0.00 | 0.00 | 78 | 982.0 |
| 20260503052655 | 32 | 180 | 0.0 | 0.0 | 0.00 | 0.00 | 0.00 | 79 | 982.0 |
| 20260503052156 | 32 | 180 | 0.0 | 0.0 | 0.00 | 0.00 | 0.00 | 79 | 982.0 |
| 20260503051655 | 32 | 180 | 0.0 | 0.0 | 0.00 | 0.00 | 0.00 | 79 | 982.0 |
| 20260503051156 | 32 | 180 | 0.0 | 0.0 | 0.00 | 0.00 | 0.00 | 79 | 982.0 |
| 20260503050656 | 32 | 180 | 0.0 | 0.0 | 0.00 | 0.00 | 0.00 | 79 | 982.0 |
| 20260503050156 | 32 | 180 | 0.0 | 0.0 | 0.00 | 0.00 | 0.00 | 78 | 982.0 |
| 20260503045655 | 32 | 180 | 0.0 | 0.0 | 0.00 | 0.00 | 0.00 | 79 | 982.0 |
| 20260503045155 | 32 | 180 | 0.0 | 0.0 | 0.00 | 0.00 | 0.00 | 80 | 982.0 |
| 20260503044656 | 32 | 180 | 0.0 | 0.0 | 0.00 | 0.00 | 0.00 | 80 | 982.0 |
| 20260503044155 | 32 | 180 | 0.0 | 0.0 | 0.00 | 0.00 | 0.00 | 80 | 982.0 |
| 20260503043655 | 32 | 180 | 0.0 | 0.0 | 0.00 | 0.00 | 0.00 | 80 | 982.0 |
| 20260503043155 | 32 | 180 | 0.0 | 0.0 | 0.00 | 0.00 | 0.00 | 81 | 982.0 |
| 20260503042655 | 32 | 180 | 0.0 | 0.0 | 0.00 | 0.00 | 0.00 | 81 | 982.0 |
| 20260503042155 | 32 | 180 | 0.0 | 0.0 | 0.00 | 0.00 | 0.00 | 81 | 982.0 |
| 20260503041655 | 32 | 180 | 0.0 | 0.0 | 0.00 | 0.00 | 0.00 | 80 | 982.0 |
| 20260503041155 | 33 | 180 | 0.0 | 0.0 | 0.00 | 0.00 | 0.00 | 81 | 982.0 |
| 20260503040656 | 33 | 180 | 0.0 | 0.0 | 0.00 | 0.00 | 0.00 | 81 | 982.0 |
| 20260503040155 | 33 | 180 | 0.0 | 0.0 | 0.00 | 0.00 | 0.00 | 81 | 982.0 |
| 20260503035655 | 33 | 180 | 0.0 | 0.0 | 0.00 | 0.00 | 0.00 | 82 | 982.0 |
| 20260503035155 | 33 | 180 | 0.0 | 0.0 | 0.00 | 0.00 | 0.00 | 83 | 982.0 |
| 20260503034655 | 33 | 180 | 0.0 | 0.0 | 0.00 | 0.00 | 0.00 | 84 | 982.0 |
| 20260503034155 | 33 | 180 | 0.0 | 0.0 | 0.00 | 0.00 | 0.00 | 84 | 982.0 |
| 20260503033655 | 33 | 180 | 0.0 | 0.0 | 0.00 | 0.00 | 0.00 | 84 | 982.0 |
| 20260503033155 | 33 | 180 | 0.0 | 0.0 | 0.00 | 0.00 | 0.00 | 85 | 982.0 |
| 20260503032655 | 33 | 180 | 0.0 | 0.0 | 0.00 | 0.00 | 0.00 | 85 | 982.0 |
| 20260503032157 | 33 | 180 | 0.0 | 0.0 | 0.00 | 0.00 | 0.00 | 85 | 982.0 |
| 20260503031655 | 33 | 180 | 0.0 | 0.0 | 0.00 | 0.00 | 0.00 | 84 | 982.0 |
| 20260503031155 | 33 | 180 | 0.0 | 0.0 | 0.00 | 0.00 | 0.00 | 83 | 982.0 |
| 20260503030655 | 33 | 180 | 0.0 | 0.0 | 0.00 | 0.00 | 0.00 | 83 | 982.0 |
| 20260503030155 | 34 | 180 | 0.0 | 0.0 | 0.00 | 0.00 | 0.00 | 83 | 982.0 |
| 20260503025656 | 34 | 180 | 0.0 | 0.0 | 0.00 | 0.00 | 0.00 | 84 | 982.0 |
| 20260503025155 | 34 | 180 | 0.0 | 0.0 | 0.00 | 0.00 | 0.00 | 84 | 982.0 |
| 20260503024655 | 34 | 180 | 0.0 | 0.0 | 0.00 | 0.00 | 0.00 | 83 | 982.0 |
| 20260503024156 | 34 | 180 | 0.0 | 0.0 | 0.00 | 0.00 | 0.00 | 82 | 982.0 |
| 20260503023655 | 34 | 180 | 0.0 | 0.0 | 0.00 | 0.00 | 0.00 | 82 | 982.0 |
| 20260503023156 | 34 | 180 | 0.0 | 0.0 | 0.00 | 0.00 | 0.00 | 82 | 982.0 |
| 20260503022655 | 34 | 180 | 0.0 | 0.0 | 0.00 | 0.00 | 0.00 | 81 | 982.0 |
| 20260503022155 | 35 | 180 | 0.0 | 0.0 | 0.00 | 0.00 | 0.00 | 79 | 982.0 |
| 20260503021655 | 35 | 180 | 0.0 | 0.0 | 0.00 | 0.00 | 0.00 | 79 | 982.0 |
| 20260503021156 | 35 | 180 | 0.0 | 0.0 | 0.00 | 0.00 | 0.00 | 79 | 983.0 |
| 20260503020656 | 35 | 180 | 0.0 | 0.0 | 0.00 | 0.00 | 0.00 | 78 | 982.0 |
| 20260503020155 | 35 | 180 | 0.0 | 0.9 | 0.00 | 0.00 | 0.00 | 78 | 982.0 |
| 20260503015655 | 35 | 180 | 0.0 | 0.0 | 0.00 | 0.00 | 0.00 | 76 | 982.0 |
| 20260503015155 | 35 | 180 | 0.0 | 0.0 | 0.00 | 0.00 | 0.00 | 74 | 982.0 |
| 20260503014655 | 36 | 180 | 0.0 | 0.0 | 0.00 | 0.00 | 0.00 | 72 | 982.0 |
| 20260503014155 | 37 | 180 | 0.0 | 0.0 | 0.00 | 0.00 | 0.00 | 71 | 982.0 |
| 20260503013655 | 37 | 180 | 0.0 | 0.0 | 0.00 | 0.00 | 0.00 | 69 | 982.0 |
| 20260503013156 | 38 | 180 | 0.0 | 0.0 | 0.00 | 0.00 | 0.00 | 68 | 982.0 |
| 20260503012655 | 38 | 180 | 0.0 | 0.0 | 0.00 | 0.00 | 0.00 | 67 | 982.0 |
| 20260503012155 | 39 | 181 | 0.0 | 0.0 | 0.00 | 0.00 | 0.00 | 66 | 982.0 |
| 20260503011655 | 40 | 181 | 0.0 | 0.9 | 0.00 | 0.00 | 0.00 | 65 | 982.0 |
| 20260503011155 | 40 | 180 | 0.0 | 0.0 | 0.00 | 0.00 | 0.00 | 64 | 982.0 |
| 20260503010655 | 40 | 180 | 0.0 | 0.0 | 0.00 | 0.00 | 0.00 | 64 | 982.0 |
| 20260503010155 | 40 | 180 | 0.0 | 0.0 | 0.00 | 0.00 | 0.00 | 61 | 982.0 |
| 20260503005656 | 41 | 180 | 0.0 | 0.0 | 0.00 | 0.00 | 0.00 | 60 | 982.0 |
| 20260503005155 | 42 | 180 | 0.0 | 0.0 | 0.00 | 0.00 | 0.00 | 57 | 982.0 |
| 20260503004656 | 42 | 180 | 0.0 | 0.0 | 0.00 | 0.00 | 0.00 | 54 | 982.0 |
| 20260503004155 | 43 | 185 | 0.0 | 0.0 | 0.00 | 0.00 | 0.00 | 53 | 982.0 |
| 20260503003655 | 44 | 200 | 0.0 | 0.9 | 0.00 | 0.00 | 0.00 | 52 | 982.0 |
| 20260503003155 | 44 | 200 | 0.0 | 0.0 | 0.00 | 0.00 | 0.00 | 52 | 982.0 |
| 20260503002655 | 45 | 206 | 0.9 | 0.9 | 0.00 | 0.00 | 0.00 | 51 | 982.0 |
| 20260503002155 | 45 | 211 | 0.9 | 1.7 | 0.00 | 0.00 | 0.00 | 51 | 982.0 |
| 20260503001656 | 45 | 211 | 0.0 | 0.0 | 0.00 | 0.00 | 0.00 | 51 | 982.0 |
| 20260503001155 | 46 | 212 | 0.0 | 0.0 | 0.00 | 0.00 | 0.00 | 50 | 982.0 |
| 20260503000655 | 46 | 266 | 0.9 | 0.9 | 0.00 | 0.00 | 0.00 | 49 | 982.0 |
| 20260503000155 | 47 | 270 | 1.7 | 1.7 | 0.00 | 0.00 | 0.00 | 47 | 982.0 |
| 20260502235655 | 47 | 262 | 0.9 | 5.2 | 0.00 | 0.00 | 0.00 | 46 | 982.0 |
| 20260502235154 | 48 | 274 | 2.6 | 3.5 | 0.00 | 0.00 | 0.00 | 46 | 982.0 |
| 20260502234655 | 47 | 275 | 2.6 | 5.2 | 0.00 | 0.00 | 0.00 | 45 | 982.0 |
| 20260502234155 | 47 | 283 | 1.7 | 5.2 | 0.00 | 0.00 | 0.00 | 46 | 982.0 |
| 20260502233655 | 47 | 273 | 1.7 | 2.6 | 0.00 | 0.00 | 0.00 | 47 | 982.0 |
| 20260502233155 | 47 | 259 | 1.7 | 1.7 | 0.00 | 0.00 | 0.00 | 47 | 982.0 |
| 20260502232657 | 47 | 271 | 0.0 | 3.5 | 0.00 | 0.00 | 0.00 | 47 | 982.0 |
| 20260502232155 | 47 | 294 | 0.9 | 5.2 | 0.00 | 0.00 | 0.00 | 46 | 982.0 |
| 20260502231655 | 47 | 292 | 3.5 | 6.1 | 0.00 | 0.00 | 0.00 | 44 | 982.0 |
| 20260502231155 | 47 | 251 | 3.5 | 6.1 | 0.00 | 0.00 | 0.00 | 44 | 982.0 |
| 20260502230655 | 47 | 265 | 1.7 | 3.5 | 0.00 | 0.00 | 0.00 | 44 | 982.0 |
| 20260502230156 | 47 | 274 | 2.6 | 5.2 | 0.00 | 0.00 | 0.00 | 43 | 982.0 |
| 20260502225655 | 48 | 302 | 2.6 | 5.2 | 0.00 | 0.00 | 0.00 | 44 | 982.0 |
| 20260502225155 | 48 | 289 | 3.5 | 6.1 | 0.00 | 0.00 | 0.00 | 44 | 982.0 |
| 20260502224655 | 48 | 267 | 2.6 | 6.1 | 0.00 | 0.00 | 0.00 | 42 | 982.0 |
| 20260502224155 | 48 | 321 | 1.7 | 1.7 | 0.00 | 0.00 | 0.00 | 45 | 982.0 |
| 20260502223655 | 48 | 344 | 3.5 | 3.5 | 0.00 | 0.00 | 0.00 | 43 | 982.0 |
| 20260502223156 | 48 | 248 | 2.6 | 3.5 | 0.00 | 0.00 | 0.00 | 46 | 982.0 |
| 20260502222655 | 48 | 273 | 1.7 | 2.6 | 0.00 | 0.00 | 0.00 | 44 | 982.0 |
| 20260502222155 | 48 | 340 | 1.7 | 3.5 | 0.00 | 0.00 | 0.00 | 43 | 982.0 |
| 20260502221655 | 48 | 298 | 2.6 | 3.5 | 0.00 | 0.00 | 0.00 | 43 | 982.0 |
| 20260502221155 | 48 | 330 | 2.6 | 2.6 | 0.00 | 0.00 | 0.00 | 42 | 982.0 |
| 20260502220655 | 49 | 309 | 2.6 | 9.6 | 0.00 | 0.00 | 0.00 | 40 | 982.0 |
| 20260502220155 | 48 | 337 | 4.3 | 6.1 | 0.00 | 0.00 | 0.00 | 41 | 982.0 |
| 20260502215655 | 48 | 321 | 1.7 | 2.6 | 0.00 | 0.00 | 0.00 | 45 | 982.0 |
| 20260502215155 | 48 | 272 | 3.5 | 7.0 | 0.00 | 0.00 | 0.00 | 44 | 982.0 |
| 20260502214655 | 49 | 298 | 2.6 | 6.1 | 0.00 | 0.00 | 0.00 | 42 | 982.0 |
| 20260502214156 | 49 | 275 | 2.6 | 5.2 | 0.00 | 0.00 | 0.00 | 41 | 982.0 |
| 20260502213655 | 49 | 14 | 2.6 | 5.2 | 0.00 | 0.00 | 0.00 | 44 | 982.0 |
| 20260502213155 | 48 | 303 | 1.7 | 2.6 | 0.00 | 0.00 | 0.00 | 44 | 982.0 |
| 20260502212655 | 48 | 246 | 1.7 | 6.1 | 0.00 | 0.00 | 0.00 | 43 | 982.0 |
| 20260502212155 | 48 | 298 | 2.6 | 6.1 | 0.00 | 0.00 | 0.00 | 45 | 982.0 |
| 20260502211655 | 48 | 2 | 3.5 | 6.1 | 0.00 | 0.00 | 0.00 | 42 | 982.0 |
| 20260502211155 | 47 | 313 | 1.7 | 6.1 | 0.00 | 0.00 | 0.00 | 43 | 982.0 |
| 20260502210655 | 47 | 356 | 4.3 | 7.0 | 0.00 | 0.00 | 0.00 | 43 | 982.0 |
| 20260502210155 | 47 | 200 | 1.7 | 6.1 | 0.00 | 0.00 | 0.00 | 43 | 982.0 |
| 20260502205657 | 47 | 347 | 4.3 | 5.2 | 0.00 | 0.00 | 0.00 | 42 | 982.0 |
| 20260502205155 | 48 | 278 | 4.3 | 7.8 | 0.00 | 0.00 | 0.00 | 41 | 982.0 |
| 20260502204655 | 48 | 273 | 3.5 | 7.0 | 0.00 | 0.00 | 0.00 | 43 | 982.0 |
| 20260502204155 | 49 | 285 | 3.5 | 7.8 | 0.00 | 0.00 | 0.00 | 40 | 982.0 |
| 20260502203655 | 48 | 355 | 3.5 | 6.1 | 0.00 | 0.00 | 0.00 | 43 | 982.0 |
| 20260502203155 | 48 | 308 | 1.7 | 3.5 | 0.00 | 0.00 | 0.00 | 40 | 982.0 |
| 20260502202655 | 48 | 355 | 5.2 | 7.8 | 0.00 | 0.00 | 0.00 | 40 | 983.0 |
| 20260502202155 | 48 | 275 | 1.7 | 5.2 | 0.00 | 0.00 | 0.00 | 42 | 983.0 |
| 20260502201655 | 48 | 309 | 2.6 | 6.1 | 0.00 | 0.00 | 0.00 | 43 | 982.0 |
| 20260502201155 | 48 | 285 | 5.2 | 7.8 | 0.00 | 0.00 | 0.00 | 43 | 983.0 |
| 20260502200655 | 48 | 300 | 5.2 | 7.8 | 0.00 | 0.00 | 0.00 | 40 | 983.0 |
| 20260502200155 | 48 | 298 | 4.3 | 5.2 | 0.00 | 0.00 | 0.00 | 40 | 983.0 |
| 20260502195655 | 48 | 321 | 2.6 | 3.5 | 0.00 | 0.00 | 0.00 | 42 | 983.0 |
| 20260502195156 | 48 | 254 | 3.5 | 6.1 | 0.00 | 0.00 | 0.00 | 43 | 983.0 |
| 20260502194655 | 48 | 260 | 5.2 | 7.8 | 0.00 | 0.00 | 0.00 | 41 | 983.0 |
| 20260502194157 | 48 | 256 | 1.7 | 7.8 | 0.00 | 0.00 | 0.00 | 42 | 983.0 |
| 20260502193655 | 48 | 291 | 1.7 | 7.8 | 0.00 | 0.00 | 0.00 | 43 | 983.0 |
| 20260502193155 | 48 | 271 | 5.2 | 6.1 | 0.00 | 0.00 | 0.00 | 42 | 983.0 |
| 20260502192655 | 48 | 333 | 4.3 | 5.2 | 0.00 | 0.00 | 0.00 | 41 | 983.0 |
| 20260502192155 | 47 | 318 | 2.6 | 5.2 | 0.00 | 0.00 | 0.00 | 44 | 983.0 |
| 20260502191655 | 48 | 299 | 1.7 | 5.2 | 0.00 | 0.00 | 0.00 | 41 | 983.0 |
| 20260502191156 | 48 | 263 | 3.5 | 7.0 | 0.00 | 0.00 | 0.00 | 41 | 983.0 |
| 20260502190655 | 48 | 358 | 4.3 | 7.0 | 0.00 | 0.00 | 0.00 | 40 | 984.0 |
| 20260502190156 | 48 | 268 | 3.5 | 7.0 | 0.00 | 0.00 | 0.00 | 40 | 983.0 |
| 20260502185655 | 48 | 300 | 2.6 | 3.5 | 0.00 | 0.00 | 0.00 | 42 | 983.0 |
| 20260502185155 | 48 | 302 | 1.7 | 7.0 | 0.00 | 0.00 | 0.00 | 41 | 983.0 |
| 20260502184655 | 48 | 284 | 5.2 | 7.0 | 0.00 | 0.00 | 0.00 | 40 | 983.0 |
| 20260502184155 | 48 | 288 | 3.5 | 7.0 | 0.00 | 0.00 | 0.00 | 40 | 983.0 |
| 20260502183655 | 48 | 358 | 3.5 | 6.1 | 0.00 | 0.00 | 0.00 | 42 | 983.0 |
| 20260502183156 | 48 | 347 | 5.2 | 8.7 | 0.00 | 0.00 | 0.00 | 41 | 983.0 |
| 20260502182654 | 47 | 272 | 1.7 | 7.0 | 0.00 | 0.00 | 0.00 | 43 | 983.0 |
| 20260502182155 | 48 | 286 | 3.5 | 7.0 | 0.00 | 0.00 | 0.00 | 41 | 983.0 |
| 20260502181655 | 48 | 1 | 3.5 | 5.2 | 0.00 | 0.00 | 0.00 | 40 | 983.0 |
| 20260502181155 | 49 | 217 | 5.2 | 7.8 | 0.00 | 0.00 | 0.00 | 38 | 983.0 |
| 20260502180655 | 50 | 230 | 3.5 | 7.0 | 0.00 | 0.00 | 0.00 | 39 | 983.0 |
| 20260502180155 | 49 | 280 | 2.6 | 7.0 | 0.00 | 0.00 | 0.00 | 49 | 983.0 |
| 20260502170155 | 50 | 8 | 5.2 | 7.0 | 0.00 | 0.00 | 0.00 | 39 | 984.0 |
| 20260502164156 | 46 | 270 | 5.2 | 7.0 | 0.00 | 0.00 | 0.00 | 44 | 984.0 |
| 20260502163655 | 47 | 217 | 3.5 | 7.8 | 0.00 | 0.00 | 0.00 | 44 | 984.0 |
| 20260502163155 | 47 | 264 | 1.7 | 3.5 | 0.00 | 0.00 | 0.00 | 44 | 984.0 |
| 20260502162655 | 48 | 332 | 3.5 | 7.8 | 0.00 | 0.00 | 0.00 | 41 | 984.0 |
| 20260502162156 | 48 | 323 | 2.6 | 3.5 | 0.00 | 0.00 | 0.00 | 47 | 984.0 |
| 20260502161655 | 46 | 307 | 1.7 | 3.5 | 0.00 | 0.00 | 0.00 | 49 | 984.0 |
| 20260502161155 | 46 | 273 | 1.7 | 6.1 | 0.00 | 0.00 | 0.00 | 44 | 984.0 |
| 20260502160655 | 47 | 301 | 6.1 | 13.0 | 0.00 | 0.00 | 0.00 | 45 | 984.0 |
| 20260502160155 | 46 | 25 | 3.5 | 7.8 | 0.00 | 0.00 | 0.00 | 46 | 984.0 |
| 20260502152156 | 44 | 308 | 1.7 | 2.6 | 0.00 | 0.00 | 0.00 | 48 | 984.0 |
| 20260502151655 | 45 | 347 | 2.6 | 5.2 | 0.00 | 0.00 | 0.00 | 45 | 984.0 |
| 20260502151156 | 46 | 273 | 3.5 | 5.2 | 0.00 | 0.00 | 0.00 | 46 | 984.0 |
| 20260502150655 | 46 | 5 | 5.2 | 7.0 | 0.00 | 0.00 | 0.00 | 45 | 984.0 |
| 20260502150155 | 47 | 11 | 3.5 | 7.8 | 0.00 | 0.00 | 0.00 | 45 | 984.0 |
| 20260502130655 | 42 | 304 | 1.7 | 6.1 | 0.00 | 0.00 | 0.00 | 60 | 984.0 |
| 20260502130155 | 42 | 8 | 4.3 | 6.1 | 0.00 | 0.00 | 0.00 | 60 | 984.0 |
| 20260502123655 | 41 | 303 | 2.6 | 2.6 | 0.00 | 0.00 | 0.00 | 63 | 984.0 |
| 20260502123156 | 41 | 17 | 1.7 | 5.2 | 0.00 | 0.00 | 0.00 | 64 | 984.0 |
| 20260502122655 | 41 | 7 | 3.5 | 5.2 | 0.00 | 0.00 | 0.00 | 65 | 984.0 |
| 20260502122155 | 40 | 3 | 2.6 | 6.1 | 0.00 | 0.00 | 0.00 | 65 | 984.0 |
| 20260502121656 | 40 | 324 | 1.7 | 2.6 | 0.00 | 0.00 | 0.00 | 66 | 984.0 |
| 20260502121155 | 40 | 329 | 2.6 | 3.5 | 0.00 | 0.00 | 0.00 | 66 | 984.0 |
| 20260502120655 | 40 | 233 | 0.9 | 3.5 | 0.00 | 0.00 | 0.00 | 67 | 984.0 |
| 20260502120155 | 40 | 320 | 3.5 | 5.2 | 0.00 | 0.00 | 0.00 | 67 | 984.0 |
| 20260502115655 | 39 | 21 | 1.7 | 2.6 | 0.00 | 0.00 | 0.00 | 67 | 984.0 |
| 20260502115155 | 39 | 291 | 2.6 | 2.6 | 0.00 | 0.00 | 0.00 | 69 | 984.0 |
| 20260502114657 | 39 | 20 | 1.7 | 2.6 | 0.00 | 0.00 | 0.00 | 70 | 984.0 |
| 20260502114155 | 38 | 317 | 3.5 | 3.5 | 0.00 | 0.00 | 0.00 | 70 | 984.0 |
| 20260502113655 | 38 | 326 | 0.9 | 2.6 | 0.00 | 0.00 | 0.00 | 72 | 984.0 |
| 20260502113155 | 37 | 292 | 2.6 | 3.5 | 0.00 | 0.00 | 0.00 | 73 | 984.0 |
| 20260502112655 | 37 | 271 | 0.9 | 2.6 | 0.00 | 0.00 | 0.00 | 74 | 984.0 |
| 20260502112155 | 36 | 259 | 0.9 | 0.9 | 0.00 | 0.00 | 0.00 | 76 | 984.0 |
| 20260502111655 | 35 | 285 | 1.7 | 2.6 | 0.00 | 0.00 | 0.00 | 77 | 984.0 |
| 20260502111155 | 34 | 350 | 0.9 | 0.9 | 0.00 | 0.00 | 0.00 | 79 | 983.0 |
| 20260502110655 | 33 | 267 | 1.7 | 1.7 | 0.00 | 0.00 | 0.00 | 80 | 983.0 |
| 20260502110155 | 33 | 279 | 0.9 | 1.7 | 0.00 | 0.00 | 0.00 | 82 | 983.0 |
| 20260502105655 | 32 | 247 | 0.0 | 0.9 | 0.00 | 0.00 | 0.00 | 82 | 983.0 |
| 20260502105155 | 32 | 272 | 0.0 | 0.9 | 0.00 | 0.00 | 0.00 | 82 | 984.0 |
| 20260502104655 | 32 | 246 | 0.0 | 0.0 | 0.00 | 0.00 | 0.00 | 81 | 983.0 |
| 20260502104155 | 32 | 269 | 0.0 | 0.9 | 0.00 | 0.00 | 0.00 | 80 | 984.0 |
| 20260502103656 | 33 | 271 | 0.9 | 1.7 | 0.00 | 0.00 | 0.00 | 80 | 983.0 |
| 20260502103155 | 33 | 277 | 0.9 | 1.7 | 0.00 | 0.00 | 0.00 | 80 | 984.0 |
| 20260502102655 | 33 | 251 | 0.0 | 0.9 | 0.00 | 0.00 | 0.00 | 79 | 983.0 |
| 20260502102155 | 33 | 294 | 0.9 | 1.7 | 0.00 | 0.00 | 0.00 | 78 | 984.0 |
| 20260502101656 | 33 | 255 | 0.9 | 1.7 | 0.00 | 0.00 | 0.00 | 78 | 983.0 |
| 20260502101155 | 33 | 239 | 0.0 | 0.9 | 0.00 | 0.00 | 0.00 | 77 | 983.0 |
| 20260502100655 | 34 | 283 | 0.9 | 0.9 | 0.00 | 0.00 | 0.00 | 77 | 983.0 |
| 20260502100155 | 34 | 269 | 0.9 | 2.6 | 0.00 | 0.00 | 0.00 | 77 | 983.0 |
| 20260502091155 | 35 | 251 | 0.9 | 0.9 | 0.00 | 0.00 | 0.00 | 72 | 983.0 |
| 20260502090655 | 36 | 209 | 0.0 | 2.6 | 0.00 | 0.00 | 0.00 | 72 | 983.0 |
| 20260502090155 | 36 | 255 | 0.9 | 1.7 | 0.00 | 0.00 | 0.00 | 71 | 983.0 |
| 20260502071155 | 39 | 290 | 0.9 | 1.7 | 0.00 | 0.00 | 0.00 | 66 | 983.0 |
| 20260502070655 | 39 | 334 | 0.0 | 0.9 | 0.00 | 0.00 | 0.00 | 67 | 982.0 |
| 20260502070155 | 39 | 26 | 0.0 | 0.9 | 0.00 | 0.00 | 0.00 | 66 | 983.0 |
| 20260502065655 | 39 | 315 | 0.0 | 2.6 | 0.00 | 0.00 | 0.00 | 66 | 983.0 |
| 20260502065156 | 39 | 299 | 0.0 | 0.9 | 0.00 | 0.00 | 0.00 | 66 | 983.0 |
| 20260502064655 | 39 | 334 | 1.7 | 3.5 | 0.00 | 0.00 | 0.00 | 65 | 983.0 |
| 20260502064155 | 39 | 9 | 0.0 | 1.7 | 0.00 | 0.00 | 0.00 | 66 | 983.0 |
| 20260502063655 | 39 | 319 | 0.0 | 0.9 | 0.00 | 0.00 | 0.00 | 65 | 983.0 |